Wilmington, DE

2:39 AM EDT on April 27, 2017 (GMT -0400)
New Castle County

Weather History for KILG - January, 2014

Change the Weather History Date:

Thursday, January 16, 2014

  Actual Average Record
Temperature  
Mean Temperature 34 °F 32 °F  
Max Temperature 40 °F 40 °F 69 °F (1932)
Min Temperature 27 °F 24 °F 1 °F (1977)
Degree Days  
Heating Degree Days 31 33  
Month to date heating degree days 539 522  
Since 1 July heating degree days 2303 2299  
Cooling Degree Days 0 0  
Month to date cooling degree days 0 0  
Year to date cooling degree days 0 0  
Moisture  
Dew Point 23 °F    
Average Humidity 67    
Maximum Humidity 89    
Minimum Humidity 44    
Precipitation  
Precipitation T in 0.10 in 1.32 in (1945)
Month to date precipitation 2.38 1.55  
Year to date precipitation 2.38 1.55  
Snow  
Snow T in 0.20 in 4.00 in (1945)
Month to date snowfall 5.0 2.5  
Since 1 July snowfall 16.9 6.3  
Snow Depth 0.00 in    
Sea Level Pressure  
Sea Level Pressure 29.96 in    
Wind  
Wind Speed 6 mph (NW)    
Max Wind Speed 16 mph    
Max Gust Speed 21 mph    
Visibility 10 miles    
Events Snow    
T = Trace of Precipitation, MM = Missing Value Source: NWS Daily Summary

Daily Weather History Graph

Daily Weather History Graph

Search for Another Location

Airport or City:

Trip Planner

Search our weather history database for the weather conditions in past years. The results will help you decide how hot, cold, wet, or windy it might be!

Date:

Astronomy

Jan. 16, 2014 Rise Set
Actual Time 7:21 AM EST 5:03 PM EST
Civil Twilight 6:51 AM EST 5:33 PM EST
Nautical Twilight 6:18 AM EST 6:06 PM EST
Astronomical Twilight 5:46 AM EST 6:38 PM EST
Moon 5:52 PM EST (1/16) 7:13 AM EST (1/16)
Length of Visible Light 10h 41m
Length of Day
9h 42m
Full, 100% of the Moon is Illuminated
Jan 16
Full
Jan 24
Last Quarter
Jan 30
New
Feb 6
First Quarter
Feb 14
Full

Hourly Weather History & Observations

Time (EST) Temp. Windchill Dew Point Humidity Pressure Visibility Wind Dir Wind Speed Gust Speed Precip Events Conditions
12:51 AM 37.9 °F 32.1 °F 33.1 °F 83% 29.94 in 10.0 mi NNW 8.1 mph - 0.00 in   Overcast
1:51 AM 36.0 °F 28.0 °F 30.0 °F 79% 29.95 in 5.0 mi NW 11.5 mph - 0.00 in Snow Light Snow
2:51 AM 34.0 °F 28.8 °F 28.9 °F 82% 29.96 in 10.0 mi NNW 5.8 mph - 0.00 in   Overcast
3:51 AM 34.0 °F 28.8 °F 30.0 °F 85% 29.96 in 10.0 mi NW 5.8 mph - N/A   Overcast
4:51 AM 35.1 °F 31.0 °F 27.0 °F 72% 29.95 in 10.0 mi North 4.6 mph - N/A   Overcast
5:51 AM 35.1 °F - 27.0 °F 72% 29.93 in 10.0 mi Calm Calm - N/A   Overcast
6:51 AM 35.1 °F 27.4 °F 26.1 °F 70% 29.94 in 10.0 mi NW 10.4 mph - 0.00 in   Overcast
7:51 AM 34.0 °F 25.5 °F 26.1 °F 73% 29.97 in 10.0 mi NW 11.5 mph - N/A   Overcast
8:51 AM 35.1 °F 27.4 °F 24.1 °F 64% 30.00 in 10.0 mi NW 10.4 mph - N/A   Overcast
9:51 AM 35.1 °F 27.9 °F 24.1 °F 64% 30.01 in 10.0 mi WNW 9.2 mph - N/A   Overcast
10:34 AM 35.6 °F 28.6 °F 24.8 °F 65% 29.99 in 3.0 mi NW 9.2 mph - 0.00 in Snow Light Snow
10:51 AM 35.1 °F 27.9 °F 21.0 °F 57% 29.99 in 9.0 mi NW 9.2 mph - 0.00 in   Overcast
10:59 AM 35.6 °F 28.0 °F 21.2 °F 56% 29.98 in 10.0 mi NW 10.4 mph - N/A   Overcast
11:51 AM 35.1 °F 26.9 °F 21.0 °F 57% 29.96 in 10.0 mi WNW 11.5 mph - N/A   Overcast
12:51 PM 37.0 °F 29.3 °F 19.9 °F 50% 29.92 in 10.0 mi WNW 11.5 mph - N/A   Overcast
1:51 PM 39.0 °F 31.8 °F 19.9 °F 46% 29.89 in 10.0 mi NNW 11.5 mph - N/A   Overcast
2:51 PM 37.9 °F 34.4 °F 19.9 °F 48% 29.90 in 10.0 mi NNW 4.6 mph - N/A   Overcast
3:51 PM 37.9 °F - 18.0 °F 45% 29.91 in 10.0 mi Calm Calm - N/A   Clear
4:51 PM 36.0 °F - 18.0 °F 48% 29.93 in 10.0 mi Calm Calm - N/A   Clear
5:51 PM 34.0 °F 31.0 °F 19.0 °F 54% 29.93 in 10.0 mi West 3.5 mph - N/A   Clear
6:51 PM 34.0 °F 28.8 °F 17.1 °F 50% 29.95 in 10.0 mi West 5.8 mph - N/A   Clear
7:51 PM 30.9 °F - 18.0 °F 59% 29.97 in 10.0 mi Calm Calm - N/A   Clear
8:51 PM 30.0 °F 26.5 °F 18.0 °F 61% 29.99 in 10.0 mi WSW 3.5 mph - N/A   Clear
9:51 PM 28.0 °F - 19.0 °F 69% 30.00 in 10.0 mi Calm Calm - N/A   Clear
10:51 PM 30.0 °F - 19.0 °F 64% 30.00 in 10.0 mi Calm Calm - N/A   Clear
11:51 PM 28.9 °F - 19.0 °F 67% 29.98 in 10.0 mi Calm Calm - N/A   Clear